Tracking 22130 objects as of 21-Jan-2021
HD Live streaming from Space Station
objects crossing your sky now

COSMOS 520

Track COSMOS 520 now!
COSMOS 520 is classified as:


NORAD ID: 6192
Int'l Code: 1972-072A
Perigee: 8,730.1 km
Apogee: 31,514.8 km
Inclination: 72.8 °
Period: 715.3 minutes
Semi major axis: 26493 km
RCS: 12.5618 m2 (large)
Launch date: September 19, 1972
Source: Commonwealth of Independent States (former USSR) (CIS)
Launch site: PLESETSK MISSILE AND SPACE COMPLEX (PKMTR)
aabbcc
Your satellite tracking list
Your tracking list is empty




NASA's NSSDC Master Catalog

Two Line Element Set (TLE):
1 06192U 72072A   21019.91327493  .00000018  00000-0  00000-0 0  9996
2 06192  72.8451 293.0169 4300069 249.5844 331.9855  2.01323597355431
Source of the keplerian elements: AFSPC